Time,TemperatureF,DewpointF,PressureIn,WindDirection,WindDirectionDegrees,WindSpeedMPH,WindSpeedGustMPH,Humidity,HourlyPrecipIn,Conditions,Clouds,dailyrainin,SolarRadiationWatts/m^2,SoftwareType,DateUTC
2013-09-28 00:13:00,29.0,29.0,-100.00,West,270,0.0,0.0,98,0.00,,,0.14,0.000000,,2013-09-28 06:13:00,
2013-09-28 00:22:00,29.0,29.0,-100.00,West,270,0.0,0.0,98,0.00,,,0.14,0.000000,,2013-09-28 06:22:00,
2013-09-28 00:32:00,29.0,29.0,-100.00,West,270,0.0,0.0,98,0.00,,,0.14,0.000000,,2013-09-28 06:32:00,
2013-09-28 01:12:00,29.0,29.0,-100.00,WNW,287,0.0,0.0,98,0.00,,,0.14,0.000000,,2013-09-28 07:12:00,
2013-09-28 01:22:00,29.0,29.0,-100.00,WNW,287,0.0,0.0,98,0.00,,,0.14,0.000000,,2013-09-28 07:22:00,
2013-09-28 01:32:00,29.0,29.0,-100.00,WNW,287,0.0,0.0,98,0.00,,,0.14,0.000000,,2013-09-28 07:32:00,
2013-09-28 02:13:00,28.0,27.0,-100.00,WNW,295,0.0,0.0,94,0.00,,,0.14,0.000000,,2013-09-28 08:13:00,
2013-09-28 02:21:00,28.0,27.0,-100.00,WNW,295,0.0,0.0,94,0.00,,,0.14,0.000000,,2013-09-28 08:21:00,
2013-09-28 02:32:00,28.0,27.0,-100.00,WNW,295,0.0,0.0,94,0.00,,,0.14,0.000000,,2013-09-28 08:32:00,
2013-09-28 03:11:00,29.0,28.0,-100.00,WNW,288,0.0,0.0,95,0.00,,,0.14,0.000000,,2013-09-28 09:11:00,
2013-09-28 03:22:00,29.0,28.0,-100.00,WNW,288,0.0,0.0,95,0.00,,,0.14,0.000000,,2013-09-28 09:22:00,
2013-09-28 03:33:00,29.0,28.0,-100.00,WNW,288,0.0,0.0,95,0.00,,,0.14,0.000000,,2013-09-28 09:33:00,
2013-09-28 04:13:00,28.0,27.0,-100.00,West,279,0.0,0.0,95,0.00,,,0.12,0.000000,,2013-09-28 10:13:00,
2013-09-28 04:22:00,28.0,27.0,-100.00,West,279,0.0,0.0,95,0.00,,,0.12,0.000000,,2013-09-28 10:22:00,
2013-09-28 04:33:00,28.0,27.0,-100.00,West,279,0.0,0.0,95,0.00,,,0.12,0.000000,,2013-09-28 10:33:00,
2013-09-28 05:12:00,27.0,26.0,-100.00,West,271,0.0,0.0,95,0.00,,,0.12,0.000000,,2013-09-28 11:12:00,
2013-09-28 05:22:00,27.0,26.0,-100.00,West,271,0.0,0.0,95,0.00,,,0.12,0.000000,,2013-09-28 11:22:00,
2013-09-28 05:33:00,27.0,26.0,-100.00,West,271,0.0,0.0,95,0.00,,,0.12,0.000000,,2013-09-28 11:33:00,
2013-09-28 06:12:00,27.0,26.0,-100.00,West,273,0.0,0.0,94,0.00,,,0.11,0.000000,,2013-09-28 12:12:00,
2013-09-28 06:22:00,27.0,26.0,-100.00,West,273,0.0,0.0,94,0.00,,,0.11,0.000000,,2013-09-28 12:22:00,
2013-09-28 06:32:00,27.0,26.0,-100.00,West,273,0.0,0.0,94,0.00,,,0.11,0.000000,,2013-09-28 12:32:00,
2013-09-28 07:12:00,28.0,26.0,-100.00,WNW,286,0.0,0.0,91,0.00,,,0.11,0.000000,,2013-09-28 13:12:00,
2013-09-28 07:22:00,28.0,26.0,-100.00,WNW,286,0.0,0.0,91,0.00,,,0.11,0.000000,,2013-09-28 13:22:00,
2013-09-28 07:32:00,28.0,26.0,-100.00,WNW,286,0.0,0.0,91,0.00,,,0.11,0.000000,,2013-09-28 13:32:00,
2013-09-28 08:12:00,28.0,26.0,-100.00,WSW,247,0.0,0.0,91,0.00,,,0.11,5.000000,,2013-09-28 14:12:00,
2013-09-28 08:21:00,28.0,26.0,-100.00,WSW,247,0.0,0.0,91,0.00,,,0.11,5.000000,,2013-09-28 14:21:00,
2013-09-28 08:32:00,28.0,26.0,-100.00,WSW,247,0.0,0.0,91,0.00,,,0.11,5.000000,,2013-09-28 14:32:00,
2013-09-28 09:12:00,33.0,28.0,-100.00,WSW,256,0.0,0.0,82,0.00,,,0.11,105.000000,,2013-09-28 15:12:00,
2013-09-28 09:23:00,33.0,28.0,-100.00,WSW,256,0.0,0.0,82,0.00,,,0.11,105.000000,,2013-09-28 15:23:00,
2013-09-28 09:34:00,33.0,28.0,-100.00,WSW,256,0.0,0.0,82,0.00,,,0.11,105.000000,,2013-09-28 15:34:00,
2013-09-28 10:14:00,37.0,31.0,-100.00,WSW,250,4.0,13.0,80,0.03,,,0.14,333.000000,,2013-09-28 16:14:00,
2013-09-28 10:24:00,37.0,31.0,-100.00,WSW,250,4.0,13.0,80,0.03,,,0.14,333.000000,,2013-09-28 16:24:00,
2013-09-28 10:34:00,37.0,31.0,-100.00,WSW,250,4.0,13.0,80,0.03,,,0.14,333.000000,,2013-09-28 16:34:00,
2013-09-28 11:13:00,40.0,30.0,-100.00,WSW,242,6.0,12.0,66,0.01,,,0.15,524.000000,,2013-09-28 17:13:00,
2013-09-28 11:23:00,40.0,30.0,-100.00,WSW,242,6.0,12.0,66,0.01,,,0.15,524.000000,,2013-09-28 17:23:00,
2013-09-28 11:34:00,40.0,30.0,-100.00,WSW,242,6.0,12.0,66,0.01,,,0.15,524.000000,,2013-09-28 17:34:00,
2013-09-28 12:12:00,44.0,31.0,-100.00,WSW,252,6.0,12.0,60,0.00,,,0.14,662.000000,,2013-09-28 18:12:00,
2013-09-28 12:22:00,44.0,31.0,-100.00,WSW,252,6.0,12.0,60,0.00,,,0.14,662.000000,,2013-09-28 18:22:00,
2013-09-28 12:32:00,44.0,31.0,-100.00,WSW,252,6.0,12.0,60,0.00,,,0.14,662.000000,,2013-09-28 18:32:00,
2013-09-28 13:11:00,47.0,32.0,-100.00,West,260,6.0,15.0,56,0.00,,,0.14,752.000000,,2013-09-28 19:11:00,
2013-09-28 13:22:00,47.0,32.0,-100.00,West,260,6.0,15.0,56,0.00,,,0.14,752.000000,,2013-09-28 19:22:00,
2013-09-28 13:32:00,47.0,32.0,-100.00,West,260,6.0,15.0,56,0.00,,,0.14,752.000000,,2013-09-28 19:32:00,
2013-09-28 14:12:00,50.0,31.0,-100.00,WSW,242,8.0,17.0,47,0.00,,,0.14,653.000000,,2013-09-28 20:12:00,
2013-09-28 14:22:00,50.0,31.0,-100.00,WSW,242,8.0,17.0,47,0.00,,,0.14,653.000000,,2013-09-28 20:22:00,
2013-09-28 14:33:00,50.0,31.0,-100.00,WSW,242,8.0,17.0,47,0.00,,,0.14,653.000000,,2013-09-28 20:33:00,
2013-09-28 15:12:00,52.0,30.0,-100.00,West,265,7.0,17.0,43,0.00,,,0.14,706.000000,,2013-09-28 21:12:00,
2013-09-28 15:23:00,52.0,30.0,-100.00,West,265,7.0,17.0,43,0.00,,,0.14,706.000000,,2013-09-28 21:23:00,
2013-09-28 15:34:00,52.0,30.0,-100.00,West,265,7.0,17.0,43,0.00,,,0.14,706.000000,,2013-09-28 21:34:00,
2013-09-28 16:13:00,50.0,29.0,-100.00,SW,232,7.0,15.0,45,0.00,,,0.11,561.000000,,2013-09-28 22:13:00,
2013-09-28 16:23:00,50.0,29.0,-100.00,SW,232,7.0,15.0,45,0.00,,,0.11,561.000000,,2013-09-28 22:23:00,
2013-09-28 16:33:00,50.0,29.0,-100.00,SW,232,7.0,15.0,45,0.00,,,0.11,561.000000,,2013-09-28 22:33:00,
2013-09-28 17:12:00,50.0,31.0,-100.00,WSW,249,7.0,17.0,47,0.00,,,0.08,126.000000,,2013-09-28 23:12:00,
2013-09-28 17:22:00,50.0,31.0,-100.00,WSW,249,7.0,17.0,47,0.00,,,0.08,126.000000,,2013-09-28 23:22:00,
2013-09-28 17:34:00,50.0,31.0,-100.00,WSW,249,7.0,17.0,47,0.00,,,0.08,126.000000,,2013-09-28 23:34:00,
2013-09-28 18:11:00,50.0,32.0,-100.00,SW,236,6.0,12.0,50,0.00,,,0.05,63.000000,,2013-09-29 00:11:00,
2013-09-28 18:22:00,50.0,32.0,-100.00,SW,236,6.0,12.0,50,0.00,,,0.05,63.000000,,2013-09-29 00:22:00,
2013-09-28 18:32:00,50.0,32.0,-100.00,SW,236,6.0,12.0,50,0.00,,,0.05,63.000000,,2013-09-29 00:32:00,
2013-09-28 19:12:00,45.0,30.0,-100.00,SW,233,5.0,14.0,55,0.00,,,0.04,53.000000,,2013-09-29 01:12:00,
2013-09-28 19:22:00,45.0,30.0,-100.00,SW,233,5.0,14.0,55,0.00,,,0.04,53.000000,,2013-09-29 01:22:00,
2013-09-28 19:32:00,45.0,30.0,-100.00,SW,233,5.0,14.0,55,0.00,,,0.04,53.000000,,2013-09-29 01:32:00,
2013-09-28 20:12:00,43.0,30.0,-100.00,SW,229,5.0,9.0,60,0.00,,,0.04,1.000000,,2013-09-29 02:12:00,
2013-09-28 20:22:00,43.0,30.0,-100.00,SW,229,5.0,9.0,60,0.00,,,0.04,1.000000,,2013-09-29 02:22:00,
2013-09-28 20:32:00,43.0,30.0,-100.00,SW,229,5.0,9.0,60,0.00,,,0.04,1.000000,,2013-09-29 02:32:00,
2013-09-28 21:12:00,42.0,32.0,-100.00,SW,231,4.0,10.0,67,0.00,,,0.04,0.000000,,2013-09-29 03:12:00,
2013-09-28 21:23:00,42.0,32.0,-100.00,SW,231,4.0,10.0,67,0.00,,,0.04,0.000000,,2013-09-29 03:23:00,
2013-09-28 21:34:00,42.0,32.0,-100.00,SW,231,4.0,10.0,67,0.00,,,0.04,0.000000,,2013-09-29 03:34:00,
2013-09-28 22:02:00,-999.0,-99.9,-100.00,SSW,193,0.0,7.0,-999,-99.99,,,-99.99,0.000000,,2013-09-29 04:02:00,
2013-09-28 22:14:00,38.0,31.0,-100.00,SSW,193,0.0,7.0,76,0.00,,,0.04,0.000000,,2013-09-29 04:14:00,
2013-09-28 22:24:00,38.0,31.0,-100.00,SSW,193,0.0,7.0,76,0.00,,,0.04,0.000000,,2013-09-29 04:24:00,
2013-09-28 22:34:00,38.0,31.0,-100.00,SSW,193,0.0,7.0,76,0.00,,,0.04,0.000000,,2013-09-29 04:34:00,
2013-09-28 23:14:00,38.0,32.0,-100.00,South,177,2.0,4.0,79,0.00,,,-99.99,0.000000,,2013-09-29 05:14:00,
2013-09-28 23:22:00,38.0,32.0,-100.00,South,177,2.0,4.0,79,0.00,,,-99.99,0.000000,,2013-09-29 05:22:00,
2013-09-28 23:34:00,38.0,32.0,-100.00,South,177,2.0,4.0,79,0.00,,,-99.99,0.000000,,2013-09-29 05:34:00,